{"data":{"norad_id":54067,"epoch":"2026-05-24T23:23:53.424960Z","epoch_age_seconds":67310,"freshness":"FRESH","line1":"1 54067U 22136S   26144.97492390  .00000242  00000+0  33263-4 0  9994","line2":"2 54067  53.2130   1.4341 0001277  73.5551 286.5581 15.08837133198365","mean_motion":15.08837133,"eccentricity":0.0001277,"inclination_deg":53.213,"raan_deg":1.4341,"arg_perigee_deg":73.5551,"mean_anomaly_deg":286.5581,"bstar":3.3263e-5,"rev_number":19836,"period_min":95.437736022368,"perigee_km":538.86873780528,"apogee_km":540.63556669476,"semimajor_km":6917.88915225,"source":"CELESTRAK","updated_at":"2026-05-25T13:38:17.650688Z"}}